Content
SEND FEEDBACK

Daily
Averages
Monthly
Summary
United States of America

ANNETTA SOUTH, TEXAS


Home > North America > United States > Texas
Elevation: 700 feet     Latitude: 32 45N     Longitude: 097 32W

WEATHER
 
SELECT A DAY
Number of Records: 202,652;   Date Range: 2/6/00 - 8/30/14
 
SHARE

PRINT THIS DATA

[ ← Previous Day ]
WEATHER ALMANAC - JANUARY 23, 2013
[ Next Day → ]
[ °C ]   °F
Weather ElementAverageHighLow
Temperature58.8 °F73.4 °F (3:57 pm)50 °F (3:55 am)
Dewpoint50 °F53.6 °F (1:53 pm)44.6 °F (4:55 am)
Humidity73.8 %88 % (8:49 am)47 % (3:57 pm)
Barometer30.22 in30.31 in (9:51 am)30.15 in (8:15 pm)
Wind Speed7.4 mph11.5 mph (11:51 am)
Wind Gust20.7 mph (11:51 am)
Weather ElementAverage
Visibility10 mi
Wind DirectionS (183.4 °)

Weather ElementTotal
Precipitation---
Heating Degree Days3.3 (Base 65)
Growing Degree Days11.7 (Base 50)
Averaged from 38 records on January 23, 2013
WEATHER CONDITIONS BREAKOUT
WIND DIRECTION BREAKOUT
WEATHER BY HOUR - JANUARY 23, 2013
[ °C ]   °F
Local TimeTemperatureDewpointHumidityBarometerVisibilityWind DirectionWind SpeedGust SpeedPrecipitationEventsConditions
12:35 AM53.6 °F46.4 °F77 %30.24 in10.0 miSouth (190°)5.8 mphClear
12:55 AM53.6 °F46.4 °F77 %30.24 in10.0 miSouth (190°)4.6 mphClear
1:15 AM51.8 °F46.4 °F82 %30.23 in10.0 miSW (220°)4.6 mphClear
1:35 AM51.8 °F46.4 °F82 %30.23 in10.0 miSSW (200°)6.9 mphClear
1:55 AM53.6 °F46.4 °F77 %30.24 in10.0 miSSW (200°)8.1 mphClear
2:15 AM53.6 °F46.4 °F77 %30.24 in10.0 miSSW (200°)9.2 mphClear
2:35 AM51.8 °F46.4 °F82 %30.24 in10.0 miSSW (200°)8.1 mphClear
3:15 AM51.8 °F46.4 °F82 %30.25 in10.0 miSSW (200°)5.8 mphClear
3:35 AM51.8 °F46.4 °F82 %30.25 in10.0 miSSW (210°)4.6 mphClear
3:55 AM50.0 °F46.4 °F87 %30.25 in10.0 miSSW (200°)5.8 mphClear
4:15 AM50.0 °F46.4 °F87 %30.25 in10.0 miSSW (200°)4.6 mphClear
4:35 AM50.0 °F46.4 °F87 %30.26 in10.0 miCalmClear
4:55 AM50.0 °F44.6 °F82 %30.26 in10.0 miSouth (180°)4.6 mphClear
5:15 AM50.0 °F44.6 °F82 %30.27 in10.0 miSouth (190°)4.6 mphScattered Clouds
5:35 AM50.0 °F44.6 °F82 %30.27 in10.0 miSouth (180°)4.6 mphMostly Cloudy
5:55 AM50.0 °F46.4 °F87 %30.27 in10.0 miSSW (200°)4.6 mphMostly Cloudy
8:49 AM51.8 °F48.2 °F88 %30.29 in10.0 miSouth (190°)9.2 mphClear
9:51 AM57.2 °F51.8 °F82 %30.31 in10.0 miSSW (200°)9.2 mphClear
10:54 AM64.4 °F51.8 °F64 %30.30 in10.0 miNorthClear
11:51 AM66.2 °F51.8 °F60 %30.28 in10.0 miSSW (210°)11.5 mph20.7 mphClear
12:51 PM68.0 °F51.8 °F56 %30.25 in10.0 miSouth (190°)11.5 mph20.7 mphClear
1:53 PM71.6 °F53.6 °F53 %30.21 in10.0 miSSE (160°)9.2 mphClear
2:49 PM71.6 °F51.8 °F50 %30.19 in10.0 miSouth (180°)9.2 mph17.3 mphClear
3:57 PM73.4 °F51.8 °F47 %30.18 in10.0 miSouth (180°)11.5 mph18.4 mphClear
4:51 PM71.6 °F53.6 °F53 %30.18 in10.0 miSouth (170°)8.1 mphClear
5:53 PM68.0 °F53.6 °F60 %30.17 in10.0 miSSE (160°)8.1 mphClear
8:15 PM64.4 °F53.6 °F68 %30.15 in10.0 miSouth (180°)11.5 mph16.1 mphClear
8:35 PM62.6 °F53.6 °F72 %30.16 in10.0 miSouth (180°)9.2 mphClear
8:55 PM62.6 °F53.6 °F72 %30.17 in10.0 miSSW (200°)4.6 mphClear
9:15 PM62.6 °F53.6 °F72 %30.18 in10.0 miSSW (200°)3.5 mphClear
9:35 PM60.8 °F53.6 °F77 %30.18 in10.0 miSSW (200°)6.9 mphClear
9:55 PM62.6 °F53.6 °F72 %30.18 in10.0 miSSW (200°)8.1 mphClear
10:15 PM62.6 °F53.6 °F72 %30.18 in10.0 miSSW (200°)8.1 mphClear
10:35 PM62.6 °F53.6 °F72 %30.18 in10.0 miSSW (200°)9.2 mphClear
10:55 PM62.6 °F53.6 °F72 %30.18 in10.0 miSSW (210°)10.4 mphClear
11:15 PM60.8 °F53.6 °F77 %30.17 in10.0 miSSW (200°)9.2 mphClear
11:35 PM60.8 °F53.6 °F77 %30.17 in10.0 miSSW (200°)10.4 mphClear
11:55 PM60.8 °F53.6 °F77 %30.17 in10.0 miSSW (200°)6.9 mphClear
Hourly data recorded from KGPM, located miles away from Annetta South, Texas







STORIES FROM OUR PARTNERS